Location: Peterborough
(44.3091°N, 78.3197°W)
Time: 08:13:00
(UTC-05:00)

A-11 Canister half - Pass Details

Date: 16 December 2023
Orbit: 1512 x 1687 km, 47.2° (Epoch: 25 February)

Event Time Altitude Azimuth Distance (km) Brightness Sun altitude
Exits shadow 05:04:12 28° 227° (SW) 2,734 9.9 -27.3°
Drops below altitude 10° 05:12:02 10° 175° (S) 3,933 11.3 -25.9°
Sets 05:15:48 0° 165° (SSE) 4,926 12.0 -25.3°
